Location: Aranbee
(34.0885°N, 118.2342°W)
Time: 04:13:29
(UTC+00:00)

deb Explorer IX - Pass Details

Date: 28 November 2020
Orbit: 536 x 1104 km, 38.8° (Epoch: 17 January)

Event Time Altitude Azimuth Distance (km) Brightness Sun altitude
Rises 03:27:30 0° 283° (WNW) 3,244 ? -33.4°
Reaches altitude 10° 03:30:13 10° 289° (WNW) 2,217 ? -33.9°
Enters shadow 03:32:28 24° 300° (WNW) 1,418 ? -34.4°
